Weather History for Big Delta, AK

Change the Weather History Date:

Thursday, February 13, 2014

  Actual Average Record
Temperature  
Mean Temperature -14 °F -  
Max Temperature -2 °F 15 °F 36 °F (2012)
Min Temperature -27 °F 2 °F -38 °F (2011)
Degree Days  
Heating Degree Days 80    
Moisture  
Dew Point -17 °F    
Average Humidity 61    
Maximum Humidity 78    
Minimum Humidity 43    
Precipitation  
Precipitation 0.00 in - - ()
Sea Level Pressure  
Sea Level Pressure 29.33 in    
Wind  
Wind Speed 22 mph (SE)    
Max Wind Speed 36 mph    
Max Gust Speed 48 mph    
Visibility 9 miles    
Events      
Averages and records for this station are not official NWS values.
T = Trace of Precipitation, MM = Missing Value Source: NWS Daily Summary

Daily Weather History Graph

Daily Weather History Graph

Search for Another Location

Airport:

Trip Planner

Search our weather history database for the weather conditions in past years. The results will help you decide how hot, cold, wet, or windy it might be!

Date:

Astronomy

Feb. 13, 2014 Rise Set
Actual Time 8:43 AM AKST 5:12 PM AKST
Civil Twilight 7:51 AM AKST 6:03 PM AKST
Nautical Twilight 6:55 AM AKST 6:59 PM AKST
Astronomical Twilight 6:01 AM AKST 7:54 PM AKST
Moon 4:31 PM AKST (2/13) 7:44 AM AKST (2/13)
Length of Visible Light 10h 11m
Length of Day
8h 28m
Waxing Gibbous, 99% of the Moon is Illuminated
Feb 13
Waxing Gibbous
Feb 14
Full
Feb 22
Last Quarter
Feb 28
New
Mar 8
First Quarter

Hourly Weather History & Observations

Time (AKST) Temp. Windchill Dew Point Humidity Pressure Visibility Wind Dir Wind Speed Gust Speed Precip Events Conditions
12:53 AM -11.0 °F -37.4 °F -20.9 °F 62% 29.42 in 10.0 mi SE 21.9 mph 27.6 mph 0.00 in   Partly Cloudy
1:53 AM -11.0 °F -38.4 °F -20.0 °F 64% 29.39 in 9.0 mi ESE 24.2 mph 33.4 mph N/A   Clear
2:53 AM -9.9 °F -37.5 °F -18.9 °F 65% 29.37 in 7.0 mi ESE 25.3 mph 38.0 mph N/A   Overcast
3:53 AM -9.9 °F -37.5 °F -20.0 °F 61% 29.35 in 9.0 mi East 25.3 mph 34.5 mph 0.00 in   Mostly Cloudy
4:53 AM -9.9 °F -37.0 °F -20.0 °F 61% 29.34 in 9.0 mi ESE 24.2 mph 33.4 mph 0.00 in   Clear
5:53 AM -9.9 °F -36.5 °F -20.0 °F 61% 29.32 in 10.0 mi ESE 23.0 mph 38.0 mph 0.00 in   Clear
6:53 AM -9.9 °F -38.0 °F -20.0 °F 61% 29.31 in 9.0 mi ESE 26.5 mph 34.5 mph N/A   Clear
7:53 AM -9.0 °F -37.2 °F -18.9 °F 62% 29.32 in 10.0 mi ESE 27.6 mph 33.4 mph N/A   Mostly Cloudy
8:53 AM -8.0 °F -33.9 °F -18.0 °F 61% 29.30 in 10.0 mi ESE 23.0 mph - 0.00 in   Overcast
9:53 AM -7.1 °F -35.4 °F -17.0 °F 62% 29.30 in 7.0 mi ESE 29.9 mph 40.3 mph N/A   Overcast
10:53 AM -6.0 °F -33.5 °F -16.1 °F 62% 29.29 in 7.0 mi East 28.8 mph 40.3 mph N/A   Overcast
11:53 AM -4.0 °F -30.4 °F -15.0 °F 59% 29.29 in 8.0 mi ESE 27.6 mph 41.4 mph N/A   Mostly Cloudy
12:53 PM -2.9 °F -31.6 °F -14.1 °F 59% 29.29 in 7.0 mi ESE 35.7 mph 48.3 mph N/A   Mostly Cloudy
1:53 PM -2.9 °F -30.2 °F -14.1 °F 59% 29.29 in 9.0 mi ESE 31.1 mph 42.6 mph N/A   Mostly Cloudy
2:53 PM -2.9 °F -26.7 °F -14.1 °F 59% 29.29 in 9.0 mi ESE 21.9 mph 31.1 mph N/A   Mostly Cloudy
3:53 PM -2.9 °F -25.0 °F -14.1 °F 59% 29.30 in 10.0 mi ESE 18.4 mph 28.8 mph N/A   Mostly Cloudy
4:53 PM -2.9 °F -23.1 °F -13.0 °F 62% 29.31 in 10.0 mi ESE 15.0 mph 24.2 mph N/A   Mostly Cloudy
5:53 PM -5.1 °F -19.1 °F -14.1 °F 65% 29.33 in 10.0 mi SW 6.9 mph - N/A   Mostly Cloudy
6:53 PM -7.1 °F -18.1 °F -15.0 °F 68% 29.34 in 10.0 mi South 4.6 mph - N/A   Mostly Cloudy
7:53 PM -6.0 °F -20.1 °F -15.0 °F 65% 29.34 in 10.0 mi SSE 6.9 mph - N/A   Mostly Cloudy
8:53 PM -8.0 °F -16.9 °F -16.1 °F 68% 29.34 in 10.0 mi South 3.5 mph - N/A   Mostly Cloudy
9:53 PM -2.9 °F -24.4 °F -13.0 °F 62% 29.34 in 10.0 mi ESE 17.3 mph - N/A   Clear
10:53 PM -13.0 °F -27.0 °F -18.0 °F 78% 29.37 in 10.0 mi WSW 5.8 mph - N/A   Clear
11:53 PM -15.0 °F -31.0 °F -20.0 °F 78% 29.39 in 10.0 mi SW 6.9 mph - N/A   Clear